FW9201 Weather Reports


Display with metric or nautical units.
time (UTC)temp
F
wind
direction
speed
MPH
gust
MPH
rain 1hr
in
rain 24hr
in
rain mn
in
humidity
%
barometer
mb
20260504150606 49 243 0.0 0.0 0.00 0.00 0.00 57 1016.1
20260504150103 49 245 0.0 0.0 0.00 0.00 0.00 58 1016.1
20260504141032 48 283 0.0 0.0 0.00 0.00 0.00 57 1015.8
20260504140528 48 246 0.0 0.0 0.00 0.00 0.00 57 1015.9
20260504130453 47 229 0.0 0.0 0.00 0.00 0.00 58 1015.4
20260504110340 48 269 2.0 7.0 0.00 0.00 0.00 53 1015.9
20260504100257 50 299 5.0 8.0 0.00 0.00 0.00 45 1015.5
20260504081651 52 260 0.0 0.0 0.00 0.00 0.00 41 1014.5
20260504081147 52 271 3.0 5.0 0.00 0.00 0.00 41 1014.3
20260504080643 52 321 2.0 6.0 0.00 0.00 0.00 41 1014.3
20260504080140 53 300 5.0 6.0 0.00 0.00 0.00 41 1014.2
20260504070108 59 330 11.0 13.0 0.00 0.00 0.00 36 1010.8
20260504050456 52 223 0.0 0.0 0.00 0.00 0.00 42 1008.9
20260504045953 53 233 0.0 0.0 0.00 0.00 0.00 42 1008.6
20260504045449 54 233 0.0 0.0 0.00 0.00 0.00 40 1008.6
20260504044945 54 243 0.0 0.0 0.00 0.00 0.00 41 1008.6
20260504044443 55 227 0.0 0.0 0.00 0.00 0.00 37 1008.6
20260504043940 55 235 0.0 0.0 0.00 0.00 0.00 37 1008.8
20260504043437 56 225 0.0 0.0 0.00 0.00 0.00 36 1008.8
20260504042935 55 235 0.0 0.0 0.00 0.00 0.00 37 1008.9
20260504042431 56 227 0.0 0.0 0.00 0.00 0.00 37 1008.5
20260504041928 56 236 0.0 0.0 0.00 0.00 0.00 37 1008.6
20260504041424 57 217 0.0 0.0 0.00 0.00 0.00 35 1008.4
20260504040920 57 216 0.0 0.0 0.00 0.00 0.00 35 1008.5
20260504040418 57 227 0.0 0.0 0.00 0.00 0.00 34 1008.5
20260504035914 57 235 0.0 0.0 0.00 0.00 0.00 37 1008.6
20260504035411 58 219 0.0 0.0 0.00 0.00 0.00 33 1008.5
20260504034908 58 211 0.0 0.0 0.00 0.00 0.00 33 1008.4
20260504034405 59 197 0.0 0.0 0.00 0.00 0.00 32 1008.2
20260504033902 59 230 0.0 0.0 0.00 0.00 0.00 31 1008.1
20260504033400 61 243 0.0 0.0 0.00 0.00 0.00 31 1008.1
20260504032857 60 224 0.0 0.0 0.00 0.00 0.00 29 1008.0
20260504032354 61 245 0.0 0.0 0.00 0.00 0.00 30 1008.2
20260504031850 62 227 0.0 0.0 0.00 0.00 0.00 28 1008.1
20260504031348 61 219 0.0 0.0 0.00 0.00 0.00 29 1007.8
20260504030844 63 222 0.0 0.0 0.00 0.00 0.00 28 1007.9
20260504030341 63 233 0.0 0.0 0.00 0.00 0.00 27 1007.6
20260504025837 63 229 0.0 0.0 0.00 0.00 0.00 27 1007.5
20260504025334 63 231 0.0 0.0 0.00 0.00 0.00 26 1007.8
20260504024831 64 240 0.0 0.0 0.00 0.00 0.00 26 1007.2
20260504024327 65 237 0.0 0.0 0.00 0.00 0.00 26 1007.4
20260504023824 65 233 0.0 0.0 0.00 0.00 0.00 25 1007.3
20260504023321 65 224 0.0 0.0 0.00 0.00 0.00 23 1007.4
20260504022817 67 220 0.0 0.0 0.00 0.00 0.00 23 1007.3
20260504022314 68 241 0.0 0.0 0.00 0.00 0.00 26 1007.4
20260504021810 69 226 0.0 0.0 0.00 0.00 0.00 22 1007.3
20260504021308 68 217 0.0 0.0 0.00 0.00 0.00 22 1007.2
20260504020804 69 215 0.0 0.0 0.00 0.00 0.00 21 1007.3
20260504020301 69 221 0.0 0.0 0.00 0.00 0.00 21 1007.3
20260504015757 69 225 0.0 0.0 0.00 0.00 0.00 22 1007.1
20260504015254 69 268 0.0 0.0 0.00 0.00 0.00 21 1007.2
20260504014750 70 243 0.0 0.0 0.00 0.00 0.00 22 1007.0
20260504014246 70 222 0.0 0.0 0.00 0.00 0.00 21 1007.3
20260504013744 70 234 0.0 0.0 0.00 0.00 0.00 21 1007.4
20260504013242 70 211 0.0 0.0 0.00 0.00 0.00 20 1007.2
20260504012738 70 243 0.0 0.0 0.00 0.00 0.00 20 1007.4
20260504012236 71 229 0.0 0.0 0.00 0.00 0.00 22 1007.3
20260504011732 71 246 0.0 0.0 0.00 0.00 0.00 22 1007.1
20260504011229 70 226 0.0 0.0 0.00 0.00 0.00 24 1007.3
20260504010725 71 228 0.0 0.0 0.00 0.00 0.00 22 1007.4
20260504010221 72 150 0.0 0.0 0.00 0.00 0.00 19 1007.2
20260504005718 73 225 0.0 0.0 0.00 0.00 0.00 20 1007.3
20260504005215 73 160 6.0 7.0 0.00 0.00 0.00 21 1007.2
20260504004713 73 233 0.0 0.0 0.00 0.00 0.00 19 1007.3
20260504004209 73 143 6.0 7.0 0.00 0.00 0.00 19 1007.4
20260504003706 73 151 10.0 11.0 0.00 0.00 0.00 19 1007.3
20260504003203 73 123 0.0 0.0 0.00 0.00 0.00 20 1007.4
20260504002700 73 204 0.0 0.0 0.00 0.00 0.00 19 1007.2
20260504002157 73 231 0.0 0.0 0.00 0.00 0.00 20 1007.6
20260504001655 74 142 4.0 5.0 0.00 0.00 0.00 19 1007.5
20260504001151 74 159 4.0 5.0 0.00 0.00 0.00 19 1007.5
20260504000648 74 225 1.0 1.0 0.00 0.00 0.00 20 1007.5
20260504000145 74 214 1.0 2.0 0.00 0.00 0.00 18 1007.4
20260503235643 74 254 0.0 0.0 0.00 0.00 0.00 18 1007.9
20260503235140 74 180 1.0 3.0 0.00 0.00 0.00 18 1007.8
20260503234638 75 227 0.0 0.0 0.00 0.00 0.00 21 1007.6
20260503234136 75 326 1.0 2.0 0.00 0.00 0.00 19 1007.6
20260503233632 74 155 4.0 6.0 0.00 0.00 0.00 21 1007.8
20260503233128 74 202 0.0 0.0 0.00 0.00 0.00 21 1007.8
20260503232625 74 202 0.0 1.0 0.00 0.00 0.00 22 1007.4
20260503232122 74 165 10.0 13.0 0.00 0.00 0.00 22 1007.9
20260503231620 74 142 7.0 8.0 0.00 0.00 0.00 21 1007.8
20260503231117 74 198 4.0 7.0 0.00 0.00 0.00 21 1007.9
20260503230614 74 172 6.0 8.0 0.00 0.00 0.00 21 1008.1
20260503230111 75 144 7.0 9.0 0.00 0.00 0.00 20 1007.9
20260503225608 74 189 3.0 6.0 0.00 0.00 0.00 21 1007.9
20260503225108 74 147 1.0 5.0 0.00 0.00 0.00 22 1008.0
20260503224606 75 159 10.0 11.0 0.00 0.00 0.00 22 1008.2
20260503224103 74 145 6.0 8.0 0.00 0.00 0.00 23 1008.2
20260503223601 74 177 6.0 7.0 0.00 0.00 0.00 21 1008.2
20260503223056 74 166 6.0 8.0 0.00 0.00 0.00 21 1008.3
20260503222555 74 127 10.0 11.0 0.00 0.00 0.00 21 1008.3
20260503222052 74 158 8.0 9.0 0.00 0.00 0.00 22 1008.3
20260503221550 74 162 6.0 8.0 0.00 0.00 0.00 22 1008.5
20260503221047 74 131 7.0 8.0 0.00 0.00 0.00 23 1008.4
20260503220543 74 148 0.0 0.0 0.00 0.00 0.00 22 1008.8
20260503220041 75 168 0.0 1.0 0.00 0.00 0.00 21 1009.0
20260503215537 74 150 8.0 9.0 0.00 0.00 0.00 22 1008.9
20260503215034 74 116 5.0 6.0 0.00 0.00 0.00 26 1008.9
20260503214533 74 183 6.0 8.0 0.00 0.00 0.00 22 1008.9
20260503214029 74 152 6.0 7.0 0.00 0.00 0.00 24 1009.0
20260503213528 74 119 4.0 6.0 0.00 0.00 0.00 24 1009.5
20260503213024 73 148 8.0 9.0 0.00 0.00 0.00 23 1009.2
20260503212521 73 180 13.0 15.0 0.00 0.00 0.00 24 1009.3
20260503212019 74 163 9.0 10.0 0.00 0.00 0.00 23 1009.6
20260503211515 74 161 5.0 7.0 0.00 0.00 0.00 26 1009.5
20260503211011 74 153 8.0 8.0 0.00 0.00 0.00 24 1009.4
20260503210508 73 168 1.0 2.0 0.00 0.00 0.00 26 1009.4
20260503210004 73 159 10.0 11.0 0.00 0.00 0.00 26 1009.9
20260503205500 74 167 3.0 5.0 0.00 0.00 0.00 26 1010.1
20260503204956 73 229 1.0 2.0 0.00 0.00 0.00 26 1010.1
20260503204454 73 163 8.0 9.0 0.00 0.00 0.00 29 1009.9
20260503203950 73 131 5.0 6.0 0.00 0.00 0.00 25 1010.1
20260503203448 73 121 5.0 6.0 0.00 0.00 0.00 29 1009.9
20260503202944 73 136 12.0 16.0 0.00 0.00 0.00 26 1010.3
20260503202443 72 149 5.0 6.0 0.00 0.00 0.00 26 1010.4
20260503201941 72 148 7.0 8.0 0.00 0.00 0.00 27 1010.5
20260503201438 73 191 7.0 9.0 0.00 0.00 0.00 26 1010.5
20260503200936 73 132 5.0 7.0 0.00 0.00 0.00 28 1010.4
20260503200432 72 164 7.0 8.0 0.00 0.00 0.00 29 1010.5
20260503195928 73 128 3.0 6.0 0.00 0.00 0.00 31 1010.4
20260503195426 72 183 0.0 0.0 0.00 0.00 0.00 27 1010.8
20260503194922 72 177 7.0 8.0 0.00 0.00 0.00 30 1010.9
20260503194419 72 181 6.0 8.0 0.00 0.00 0.00 28 1010.8
20260503193914 72 172 0.0 0.0 0.00 0.00 0.00 29 1011.0
20260503193410 71 161 5.0 7.0 0.00 0.00 0.00 28 1011.1
20260503192906 70 144 0.0 1.0 0.00 0.00 0.00 29 1011.2
20260503192402 70 154 4.0 6.0 0.00 0.00 0.00 31 1011.3
20260503191858 70 82 0.0 1.0 0.00 0.00 0.00 32 1011.4
20260503191356 71 227 2.0 5.0 0.00 0.00 0.00 28 1011.5
20260503190852 71 165 0.0 1.0 0.00 0.00 0.00 29 1011.6
20260503190349 70 188 2.0 5.0 0.00 0.00 0.00 30 1011.6
20260503185846 70 138 7.0 10.0 0.00 0.00 0.00 31 1011.6
20260503185342 70 176 9.0 10.0 0.00 0.00 0.00 30 1011.6
20260503184837 70 134 0.0 1.0 0.00 0.00 0.00 32 1011.8
20260503184333 70 200 7.0 9.0 0.00 0.00 0.00 32 1011.9
20260503183829 69 151 5.0 6.0 0.00 0.00 0.00 32 1011.9
20260503183326 69 146 7.0 9.0 0.00 0.00 0.00 32 1012.0
20260503182824 69 132 4.0 7.0 0.00 0.00 0.00 31 1012.0
20260503182323 69 177 7.0 8.0 0.00 0.00 0.00 31 1012.1
20260503181819 69 97 0.0 0.0 0.00 0.00 0.00 33 1012.2
20260503181317 68 148 8.0 9.0 0.00 0.00 0.00 31 1012.4
20260503180813 69 158 7.0 9.0 0.00 0.00 0.00 32 1012.2
20260503180311 68 103 3.0 3.0 0.00 0.00 0.00 33 1012.3
20260503175807 68 193 5.0 7.0 0.00 0.00 0.00 32 1012.4
20260503175305 68 165 5.0 6.0 0.00 0.00 0.00 29 1012.6
20260503174800 68 192 0.0 0.0 0.00 0.00 0.00 31 1012.9
20260503174259 68 187 0.0 0.0 0.00 0.00 0.00 33 1012.8
20260503173754 67 160 3.0 3.0 0.00 0.00 0.00 35 1012.8
20260503173250 67 151 5.0 6.0 0.00 0.00 0.00 41 1013.0
20260503172747 67 109 0.0 0.0 0.00 0.00 0.00 41 1012.8
20260503172244 66 155 3.0 5.0 0.00 0.00 0.00 41 1013.2
20260503171741 66 155 0.0 0.0 0.00 0.00 0.00 40 1013.2
20260503171238 65 183 0.0 0.0 0.00 0.00 0.00 41 1013.3
20260503170735 65 163 0.0 1.0 0.00 0.00 0.00 43 1013.4
20260503170231 64 119 3.0 5.0 0.00 0.00 0.00 43 1013.3
20260503160153 59 140 5.0 7.0 0.00 0.00 0.00 53 1014.3